DW6451 Weather Reports


Display with metric or nautical units.
time (UTC)temp
F
wind
direction
speed
MPH
gust
MPH
rain 1hr
in
rain 24hr
in
rain mn
in
humidity
%
barometer
mb
20260507003033 44 317 2.0 7.0 0.00 0.00 0.00 56 1013.9
20260507001535 44 243 1.0 9.0 0.00 0.00 0.00 55 1013.9
20260507000033 44 244 2.0 7.0 0.00 0.00 0.00 55 1014.0
20260506234531 44 316 2.0 9.0 0.00 0.00 0.00 55 1014.0
20260506233030 44 257 3.0 9.0 0.00 0.00 0.00 56 1014.1
20260506231533 44 243 3.0 7.0 0.00 0.00 0.00 56 1014.2
20260506230028 44 327 1.0 12.0 0.00 0.00 0.00 56 1014.1
20260506224528 45 244 1.0 8.0 0.00 0.00 0.00 56 1014.1
20260506223028 44 252 2.0 6.0 0.00 0.00 0.00 56 1014.1
20260506221527 44 277 1.0 8.0 0.00 0.00 0.00 56 1014.1
20260506220027 44 296 2.0 7.0 0.00 0.00 0.00 56 1014.1
20260506214526 44 221 2.0 6.0 0.00 0.00 0.00 55 1014.1
20260506213028 45 311 3.0 8.0 0.00 0.00 0.00 54 1014.1
20260506211526 45 229 3.0 8.0 0.00 0.00 0.00 54 1014.1
20260506210029 45 268 2.0 6.0 0.00 0.00 0.00 55 1014.2
20260506204523 44 246 3.0 8.0 0.00 0.00 0.00 54 1014.3
20260506203033 44 331 2.0 8.0 0.00 0.00 0.00 54 1014.3
20260506201521 44 250 3.0 8.0 0.00 0.00 0.00 55 1014.5
20260506200020 44 327 2.0 7.0 0.00 0.00 0.00 55 1014.5
20260506194519 43 309 1.0 6.0 0.00 0.00 0.00 57 1014.5
20260506193016 43 338 3.0 8.0 0.00 0.00 0.00 56 1014.7
20260506191515 43 324 2.0 8.0 0.00 0.00 0.00 58 1014.7
20260506190014 43 328 3.0 8.0 0.00 0.00 0.00 58 1014.6
20260506184514 42 332 3.0 8.0 0.00 0.00 0.00 57 1014.7
20260506183012 42 305 1.0 6.0 0.00 0.00 0.00 57 1014.7
20260506181512 42 319 3.0 10.0 0.00 0.00 0.00 54 1014.7
20260506180014 42 317 2.0 8.0 0.00 0.00 0.00 56 1014.7
20260506174511 42 261 3.0 9.0 0.00 0.00 0.00 56 1014.8
20260506173017 42 325 3.0 7.0 0.00 0.00 0.00 55 1014.7
20260506171513 42 355 1.0 7.0 0.00 0.00 0.00 55 1014.9
20260506170009 42 227 3.0 6.0 0.00 0.00 0.00 55 1014.9
20260506164507 41 311 1.0 6.0 0.00 0.00 0.00 57 1014.9
20260506163007 41 256 2.0 6.0 0.00 0.00 0.00 58 1015.0
20260506161506 41 257 1.0 6.0 0.00 0.00 0.00 58 1015.1
20260506160006 41 236 3.0 8.0 0.00 0.00 0.00 56 1015.2
20260506154502 40 277 3.0 9.0 0.00 0.00 0.00 58 1015.2
20260506153103 40 248 3.0 6.0 0.00 0.00 0.00 60 1015.2
20260506151558 40 319 1.0 7.0 0.00 0.00 0.00 62 1015.2
20260506150057 39 278 2.0 10.0 0.00 0.00 0.00 63 1015.2
20260506144556 39 316 1.0 7.0 0.00 0.00 0.00 66 1015.3
20260506143055 39 262 2.0 6.0 0.00 0.00 0.00 66 1015.3
20260506141555 39 237 2.0 7.0 0.00 0.00 0.00 66 1015.1
20260506140053 38 331 2.0 6.0 0.00 0.00 0.00 66 1015.1
20260506134552 38 321 1.0 8.0 0.00 0.00 0.00 68 1015.1
20260506133051 37 263 3.0 7.0 0.00 0.00 0.00 67 1015.0
20260506131557 37 13 2.0 7.0 0.00 0.00 0.00 67 1014.9
20260506130103 37 297 2.0 6.0 0.00 0.00 0.00 68 1014.9
20260506124556 37 273 1.0 6.0 0.00 0.00 0.00 67 1014.8
20260506123046 36 328 3.0 7.0 0.00 0.00 0.00 68 1014.6
20260506121545 36 299 1.0 8.0 0.00 0.00 0.00 69 1014.4
20260506120106 36 250 2.0 6.0 0.00 0.00 0.00 68 1014.2
20260506114555 36 256 1.0 6.0 0.00 0.00 0.00 70 1014.1
20260506113026 36 227 0.0 7.0 0.00 0.00 0.00 69 1013.9
20260506111525 36 315 1.0 6.0 0.00 0.00 0.00 69 1013.7
20260506110025 36 288 1.0 6.0 0.00 0.00 0.00 69 1013.7
20260506104522 36 333 2.0 6.0 0.00 0.00 0.00 67 1013.5
20260506103014 36 299 0.0 5.0 0.00 0.00 0.00 67 1013.5
20260506101522 36 288 2.0 4.0 0.00 0.00 0.00 67 1013.6
20260506100007 36 336 1.0 8.0 0.00 0.00 0.00 67 1013.6
20260506094510 37 327 1.0 7.0 0.00 0.00 0.00 66 1013.5
20260506093001 37 320 0.0 6.0 0.00 0.00 0.00 65 1013.3
20260506091600 37 17 0.0 4.0 0.00 0.00 0.00 65 1013.2
20260506090057 37 253 0.0 6.0 0.00 0.00 0.00 63 1013.2
20260506084622 37 316 0.0 2.0 0.00 0.00 0.00 63 1013.2
20260506083056 37 319 1.0 5.0 0.00 0.00 0.00 63 1013.1
20260506081600 38 315 1.0 3.0 0.00 0.00 0.00 62 1013.2
20260506073052 38 334 1.0 6.0 0.00 0.00 0.00 62 1013.2
20260506071551 38 332 1.0 4.0 0.00 0.00 0.00 63 1013.2
20260506061544 39 319 0.0 4.0 0.00 0.00 0.00 63 1013.0
20260506044608 39 328 0.0 6.0 0.00 0.00 0.00 63 1012.5
20260506043032 39 325 1.0 5.0 0.00 0.00 0.00 62 1012.5
20260506041531 40 18 2.0 6.0 0.00 0.00 0.00 62 1012.5
20260506040030 40 25 1.0 7.0 0.00 0.00 0.00 61 1012.4
20260506034557 41 32 1.0 5.0 0.00 0.00 0.00 60 1012.3
20260506033032 41 26 1.0 4.0 0.00 0.00 0.00 58 1012.3
20260506031528 41 23 0.0 4.0 0.00 0.00 0.00 59 1012.2
20260506030027 41 317 1.0 5.0 0.00 0.00 0.00 57 1012.1
20260506024527 42 315 2.0 5.0 0.00 0.00 0.00 56 1012.0
20260506023024 42 327 0.0 4.0 0.00 0.00 0.00 57 1011.9
20260506021523 42 290 2.0 5.0 0.00 0.00 0.00 56 1011.8
20260506020020 42 334 0.0 4.0 0.00 0.00 0.00 56 1011.5
20260506014526 42 338 0.0 5.0 0.00 0.00 0.00 56 1011.3
20260506013017 42 318 1.0 3.0 0.00 0.00 0.00 55 1011.2
20260506011518 42 313 1.0 4.0 0.00 0.00 0.00 55 1011.0
20260506010015 43 326 2.0 8.0 0.00 0.00 0.00 54 1010.9
20260506004529 43 311 1.0 8.0 0.00 0.00 0.00 54 1010.7